Starlink 4567

operational
NORAD ID: 53970 Int'l Des: 2022-125 Owner: SPXS Country: US Constellation: starlink
LEOCIRCULAR

关于 Starlink 4567

正在加载描述...

实时位置

正在加载3D地球...

即将过境

高度历史

Altitude vs Time

uPlot chart will show altitude changes over time

两行轨道根数

1 53970U 22125G 25303.80502669 .00000098 00000-0 24243-4 0 9991
2 53970 53.2164 82.2355 0001346 88.7650 271.3496 15.08839534169790
Epoch: Oct 30, 2025 • Age: 19 hours

当前状态

高度 545.4 km
速度 7.60 km/s
星下点 53.33°N, 96.35°W
发射日期 Oct 5, 2022
运行时间 3 years
类型 internet

技术详情

分类 Payload
质量 305.00 kg
干质量 290.00 kg
总质量 305.00 kg
长度 0.20 m
直径 2.80 m
跨度 9.00 m
形状 Box + pan
制造商 SPXS
平台类型 Starlink
阶段状态 In Orbit
所有者/国家 SPXS/US

大型星座

Loading constellations...